Regional Weather Roundup
Issued by NWS

Home | Current Version | Previous Version | Graphics & Text | Print | Product List | Glossary On
Versions: 1 2 3 4 5 6 7 8 9 10 11 12 13 14 15 16 17 18 19 20 21 22 23 24 25 26 27 28 29 30 31 32 33 34 35 36 37 38 39 40 41 42 43 44 45 46 47 48 49 50
000
ASUS45 KABQ 022201
RWRNM
WEATHER ROUNDUP FOR NEW MEXICO
NATIONAL WEATHER SERVICE ALBUQUERQUE NM
400 PM MDT TUE SEP 02 2014

NOTE: "FAIR" MEANS FEW OR NO CLOUDS BELOW 12,000 FEET AGL WITH NO
       SIGNIFICANT WEATHER OR OBSTRUCTIONS TO VISION.

      THIS PRODUCT IS RELEASED AS TWO VERSIONS.  ONE VERSION NEAR
      THE TOP OF THE HOUR CONTAINING PRELIMINARY DATA FROM ALBUQUERQUE
      AND OTHER STATIONS.  A FINAL VERSION WITH ADDITIONAL DATA IS
      ISSUED ABOUT 10 MINUTES AFTER THE HOUR.

NMZ501-503-504-510>518-022300-
NORTHWEST PLATEAU/NORTHCENTRAL MOUNTAINS

CITY           SKY/WX    TMP DP  RH WIND       PRES   REMARKS
FARMINGTON     SUNNY     91  33  12 SW9       30.04F
SANTA FE       SUNNY     86  29  12 SW6       30.12F
ANGEL FIRE     FAIR      76  24  14 S10       30.29F

$$
NMZ402-403-502-505>509-022300-
WESTCENTRAL MOUNTAINS/SOUTHWEST MOUNTAINS

CITY           SKY/WX    TMP DP  RH WIND       PRES   REMARKS
GALLUP         SUNNY     88  26  10 SW9G23    30.14F
SILVER CITY    SUNNY     91  27   9 E9        30.08F

$$
NMZ407-409-411-412-022300-
SOUTHERN DESERTS

CITY           SKY/WX    TMP DP  RH WIND       PRES   REMARKS
LORDSBURG      FAIR      95  34  11 W12       29.99F
DEMING         SUNNY     99  31   9 W12G22    29.96F
HOLLOMAN AFB   SUNNY     97  30   9 VRB7      29.93F
ALAMOGORDO     SUNNY     99  32   9 SW9G17    29.95F
T OR C         SUNNY     95  31  10 MISG      30.00F

$$
NMZ519>523-022300-
CENTRAL VALLEYS/CENTRAL HIGHLANDS

CITY           SKY/WX    TMP DP  RH WIND       PRES   REMARKS
ALBUQUERQUE    MOSUNNY   91  33  12 SE6       30.06F
DOUBLE EAGLE   MOSUNNY   90  32  12 CALM      30.10F
CLINES CORNERS SUNNY     87  33  14 MISG      30.19F
BELEN          FAIR      93  36  13 S8        30.04F
SOCORRO        NOT AVBL

$$
NMZ524>526-539-540-022300-
SOUTHCENTRAL MOUNTAINS

CITY           SKY/WX    TMP DP  RH WIND       PRES   REMARKS
RUIDOSO        NOT AVBL

$$
NMZ527>531-022300-
NORTHEAST HIGHLANDS/NORTHEAST PLAINS

CITY           SKY/WX    TMP DP  RH WIND       PRES   REMARKS
LAS VEGAS      SUNNY     83  44  25 SE18G28   30.17F
RATON          MOSUNNY   87  38  17 S13G23    30.09F
CLAYTON        SUNNY     81  61  50 SE13      30.07F

$$
NMZ532>537-022300-
EASTCENTRAL PLAINS

CITY           SKY/WX    TMP DP  RH WIND       PRES   REMARKS
TUCUMCARI      SUNNY     91  57  31 E8        29.98F
CANNON AFB     SUNNY     94  55  26 E6        30.00F
CLOVIS AIRPORT   N/A     93  57  29 E12       30.02F

$$
NMZ028-029-538-022300-
SOUTHEAST PLAINS

CITY           SKY/WX    TMP DP  RH WIND       PRES   REMARKS
ROSWELL        SUNNY    100  45  15 E6        29.93F HX  96
CARLSBAD       SUNNY    102  29   7 VRB7      29.88F HX  95
HOBBS          MOSUNNY  100  41  13 SE6       29.93F HX  96


$$


USA.gov is the U.S. government's official web portal to all federal, state and local government web resources and services.